Hourly Data Report for October 01, 2017

All times are specified in Local Standard Time (LST). Add 1 hour to adjust for Daylight Saving Time where and when it is observed.

FISHER BRANCH (AUT)
MANITOBA

51°05'00.100" N
97°33'16.200" W
253.00 m
50309J6
71442
WSZ

Download Data

Hourly Data (October 2017)
Hourly Data Report for October 1, 2017
Temp Definition
°C
Dew Point Temp Definition
°C
Rel Hum Definition
%
Wind Dir Definition
10's deg

Wind Spd Definition
km/h
Visibility Definition
km
Stn Press Definition
kPa
Hmdx Definition


Wind Chill Definition


Weather Definition


TIME
00:00 14.6 10.5 76 12 23   97.78     LegendNANA
01:00 14.1 10.3 78 12 24   97.68     LegendNANA
02:00 12.7 11.4 92 10 10   97.70     LegendNANA
03:00 13.0 11.3 89 11 19   97.62     LegendNANA
04:00 13.2 11.2 88 12 20   97.56     LegendNANA
05:00 13.0 11.0 87 13 19   97.52     LegendNANA
06:00 12.8 10.8 88 13 17   97.46     LegendNANA
07:00 12.4 10.4 88 13 18   97.45     LegendNANA
08:00 12.8 10.5 86 13 22   97.44     LegendNANA
09:00 14.3 11.1 81 14 21   97.44     LegendNANA
10:00 16.4 11.3 72 15 26   97.41     LegendNANA
11:00 17.3 11.4 68 15 26   97.42     LegendNANA
12:00 17.4 11.3 67 14 28   97.39     LegendNANA
13:00 16.8 11.6 71 14 19   97.36     LegendNANA
14:00 15.7 11.9 78 13 17   97.28     LegendNANA
15:00 15.2 12.2 82 13 17   97.25     LegendNANA
16:00 14.5 12.1 86 13 18   97.25     LegendNANA
17:00 13.7 12.6 94 12 18   97.24     LegendNANA
18:00 13.4 12.6 95 10 13   97.26     LegendNANA
19:00 13.3 12.5 95 11 10   97.28     LegendNANA
20:00 13.3 12.6 95 12 14   97.23     LegendNANA
21:00 13.3 12.6 95 13 12   97.25     LegendNANA
22:00 13.7 12.8 94 15 13   97.26     LegendNANA
23:00 13.8 12.9 95 14 9   97.24     LegendNANA

Notes on Data Quality.

Legend

  • E = Estimated
  • M = Missing
  • NA = Not Available
  • ‡ = Partner data that is not subject to review by the National Climate Archives
Date modified: